Regional Weather Roundup
Issued by NWS

Home | Current Version | Previous Version | Text Only | Print | Product List | Glossary On
Versions: 1 2 3 4 5 6 7 8 9 10 11 12 13 14 15 16 17 18 19 20 21 22 23 24 25 26 27 28 29 30 31 32 33 34 35 36 37 38 39 40 41 42 43 44 45 46 47 48 49 50
000
ASUS44 KLIX 150313
RWRLA
LOUISIANA WEATHER ROUNDUP
NATIONAL WEATHER SERVICE NEW ORLEANS LA
900 PM CST THU DEC 14 2017

NOTE: "FAIR" INDICATES FEW OR NO CLOUDS BELOW 12,000 FEET WITH NO
      SIGNIFICANT WEATHER AND/OR OBSTRUCTIONS TO VISIBILITY.
      SKY/WX - SKY CONDITION AND SIGNIFICANT WEATHER.
      TMP - AIR TEMPERATURE.    DP   - DEWPOINT TEMPERATURE.
      RH  - RELATIVE HUMIDITY.  PRES - PRESSURE.
      HX  - HEAT INDEX.         WCI  - WIND CHILL INDEX.

*  THESE STATIONS ARE NOT NWS OR FAA STATIONS AND ARE NOT UNDER
   NWS QUALITY CONTROL.

LAZ040-048-061>063-065-066-069-150400-
SOUTHEAST LOUISIANA

CITY           SKY/WX    TMP DP  RH WIND       PRES   REMARKS
N.O. INTL ARPT CLOUDY    55  50  83 S6        30.02S
N.O. LAKEFRONT PTCLDY    55  46  71 S3        30.03R
N.O. DOWNTOWN* FAIR      58  49  72 S3        30.03S
RESERVE*       FAIR      53  46  76 CALM      30.03S
SLIDELL        CLOUDY    48  46  93 CALM      30.02S
BATON ROUGE    PTCLDY    49  45  86 CALM      30.03R
BOOTHVILLE     CLOUDY    56  53  90 CALM      30.04R FOG
BELLE CHASSE   CLOUDY    50  50 100 CALM      30.02S
BOGALUSA*      FAIR      47  45  90 MISG      30.03F
GALLIANO*      CLOUDY    51  47  88 CALM      30.03S
NEW ROADS*     MOCLDY    47  44  88 NW3       30.04R
GONZALES*      MOCLDY    51  46  84 CALM      30.02S
HAMMOND*       CLOUDY    46  45  93 CALM      30.03R
HOUMA*         CLOUDY    52  50  92 CALM      30.03S
PORT FOURCHON* CLEAR     59  52  77 E3        30.03F

$$

LAZ041-044-053-054-150400-
SOUTHWEST LOUISIANA

CITY           SKY/WX    TMP DP  RH WIND       PRES   REMARKS
LAKE CHARLES   PTCLDY    54  48  80 CALM      30.04R
LAFAYETTE      PTCLDY    52  51  97 CALM      30.04R
PATTERSON      CLOUDY    52  50  93 CALM      30.04R
SALT POINT       N/A     54  51  90 CALM      30.01R
NEW IBERIA     CLOUDY    50  47  89 CALM      30.04R
CHENAULT AIRPK CLEAR     54  45  71 CALM      30.05

$$

LAZ027-028-150400-
CENTRAL LOUISIANA

CITY           SKY/WX    TMP DP  RH WIND       PRES   REMARKS
FORT POLK      MOCLDY    48  44  85 CALM      30.06R
ALEXANDRIA INT PTCLDY    47  41  80 N5        30.04R
ALEXANDRIA     CLOUDY    41  41 100 CALM      30.05S

$$

LAZ001-002-150400-
NORTHWEST LOUISIANA

CITY           SKY/WX    TMP DP  RH WIND       PRES   REMARKS
SHREVEPORT     CLOUDY    50  34  54 N8        30.10R
BARKSDALE AFB  CLOUDY    44  33  64 N7        30.09R
DTN SHREVEPORT CLOUDY    49  33  54 N7        30.10R

$$

LAZ014-016-150400-
NORTHEAST LOUISIANA

CITY           SKY/WX    TMP DP  RH WIND       PRES   REMARKS
MONROE         CLOUDY    45  35  68 E3        30.09R
TALLULAH       CLOUDY    48  36  63 N6        30.08R

$$




USA.gov is the U.S. government's official web portal to all federal, state and local government web resources and services.